When you browse on this site, cookies collect data to enhance your experience and personalize the content and advertising you see.
Visit our Privacy Policy to learn more. By continuing to use the site, you agree to this use of cookies and data.
  • In Latvia
  • List of Countries
  • For 7 days
  • Water Temperature
  • Satellite Maps
  • Weather Map
  • Weather Widgets
  • user-avatar
    Login

    Hourly Weather Río Gallegos

    Today, 20 May, Monday

    Time Temperature Precipitation Wind Pressure Humidity
    00:00 +3°C° 0 mm 13 mps 758 mmHg 67%
    01:00 +3°C° 0 mm 14 mps 758 mmHg 69%
    02:00 +3°C° 0 mm 13 mps 758 mmHg 71%
    03:00 +3°C° 0 mm 13 mps 758 mmHg 72%
    04:00 +3°C° 0 mm 13 mps 758 mmHg 74%
    05:00 +3°C° 0 mm 13 mps 758 mmHg 73%
    06:00 +3°C° 0 mm 13 mps 758 mmHg 72%
    07:00 +3°C° 0 mm 13 mps 759 mmHg 71%
    08:00 +4°C° 0 mm 14 mps 759 mmHg 68%
    09:00 +5°C° 0 mm 15 mps 759 mmHg 65%
    10:00 +5°C° 0 mm 15 mps 760 mmHg 62%
    11:00 +6°C° 0 mm 15 mps 760 mmHg 60%
    12:00 +6°C° 0 mm 15 mps 760 mmHg 59%
    13:00 +8°C° 0 mm 15 mps 760 mmHg 57%
    14:00 +6°C° 0 mm 14 mps 761 mmHg 60%
    15:00 +5°C° 0 mm 13 mps 761 mmHg 63%
    16:00 +6°C° 0 mm 11 mps 762 mmHg 66%
    17:00 +4°C° 0 mm 11 mps 762 mmHg 67%
    18:00 +5°C° 0 mm 10 mps 762 mmHg 68%
    19:00 +5°C° 0 mm 10 mps 763 mmHg 69%
    20:00 +5°C° 0 mm 10 mps 763 mmHg 68%
    21:00 +5°C° 0 mm 10 mps 763 mmHg 68%
    22:00 +5°C° 0 mm 9 mps 763 mmHg 67%
    23:00 +5°C° 0 mm 8 mps 763 mmHg 68%

    Tomorrow, 21 May, Tuesday

    Time Temperature Precipitation Wind Pressure Humidity
    00:00 +4°C° 0 mm 6 mps 763 mmHg 69%
    01:00 +5°C° 0 mm 5 mps 763 mmHg 70%
    02:00 +5°C° 0 mm 5 mps 762 mmHg 69%
    03:00 +5°C° 0 mm 5 mps 762 mmHg 68%
    04:00 +4°C° 0 mm 6 mps 761 mmHg 67%
    05:00 +4°C° 0.3 mm 6 mps 761 mmHg 66%
    06:00 +4°C° 0.3 mm 7 mps 760 mmHg 66%
    07:00 +5°C° 0.3 mm 7 mps 760 mmHg 66%
    08:00 +5°C° 0 mm 7 mps 759 mmHg 59%
    09:00 +6°C° 0 mm 7 mps 759 mmHg 53%
    10:00 +8°C° 0 mm 7 mps 758 mmHg 47%
    11:00 +7°C° 0 mm 8 mps 757 mmHg 47%
    12:00 +9°C° 0 mm 8 mps 756 mmHg 46%
    13:00 +10°C° 0 mm 8 mps 756 mmHg 46%
    14:00 +9°C° 0 mm 7 mps 755 mmHg 49%
    15:00 +9°C° 0 mm 7 mps 755 mmHg 52%
    16:00 +9°C° 0 mm 7 mps 755 mmHg 54%
    17:00 +9°C° 0 mm 7 mps 755 mmHg 57%
    18:00 +9°C° 0 mm 7 mps 755 mmHg 60%
    19:00 +8°C° 0 mm 7 mps 755 mmHg 63%
    20:00 +8°C° 0 mm 7 mps 755 mmHg 66%
    21:00 +8°C° 0 mm 7 mps 755 mmHg 69%
    22:00 +6°C° 0 mm 7 mps 756 mmHg 71%
    23:00 +6°C° 0 mm 7 mps 756 mmHg 73%

    Day after tomorrow, 22 May, Wednesday

    Time Temperature Precipitation Wind Pressure Humidity
    00:00 +7°C° 0 mm 6 mps 756 mmHg 76%
    01:00 +5°C° 0 mm 6 mps 756 mmHg 78%
    02:00 +7°C° 0.1 mm 5 mps 756 mmHg 80%
    03:00 +7°C° 0.1 mm 5 mps 756 mmHg 82%
    04:00 +7°C° 0.1 mm 5 mps 756 mmHg 84%
    05:00 +7°C° 0.9 mm 4 mps 756 mmHg 87%
    06:00 +7°C° 0.9 mm 4 mps 756 mmHg 90%
    07:00 +6°C° 0.9 mm 4 mps 756 mmHg 93%
    08:00 +6°C° 1.8 mm 4 mps 756 mmHg 94%
    09:00 +7°C° 1.8 mm 4 mps 755 mmHg 94%
    10:00 +7°C° 1.8 mm 4 mps 755 mmHg 95%
    11:00 +7°C° 1.3 mm 4 mps 755 mmHg 95%
    12:00 +7°C° 1.3 mm 4 mps 754 mmHg 95%
    13:00 +8°C° 1.3 mm 3 mps 754 mmHg 95%
    14:00 +8°C° 1.9 mm 3 mps 753 mmHg 96%
    15:00 +8°C° 1.9 mm 3 mps 753 mmHg 96%
    16:00 +8°C° 1.9 mm 3 mps 753 mmHg 97%
    17:00 +8°C° 1.4 mm 3 mps 753 mmHg 96%
    18:00 +8°C° 1.4 mm 3 mps 752 mmHg 96%
    19:00 +7°C° 1.4 mm 4 mps 752 mmHg 95%
    20:00 +8°C° 0.4 mm 3 mps 753 mmHg 94%
    21:00 +8°C° 0.4 mm 3 mps 753 mmHg 94%
    22:00 +8°C° 0.4 mm 3 mps 753 mmHg 93%
    23:00 +8°C° 0.1 mm 3 mps 753 mmHg 93%

    23 May, Thursday

    Time Temperature Precipitation Wind Pressure Humidity
    00:00 +8°C° 0.1 mm 2 mps 754 mmHg 93%
    01:00 +8°C° 0.1 mm 2 mps 754 mmHg 94%
    02:00 +8°C° 0.2 mm 2 mps 754 mmHg 95%
    03:00 +8°C° 0.2 mm 2 mps 755 mmHg 95%
    04:00 +7°C° 0.2 mm 3 mps 755 mmHg 96%
    05:00 +7°C° 0.7 mm 3 mps 755 mmHg 96%
    06:00 +7°C° 0.7 mm 3 mps 756 mmHg 96%
    07:00 +7°C° 0.7 mm 3 mps 756 mmHg 96%
    08:00 +6°C° 0.8 mm 4 mps 757 mmHg 96%
    09:00 +6°C° 0.8 mm 5 mps 757 mmHg 95%
    10:00 +6°C° 0.8 mm 5 mps 757 mmHg 94%
    11:00 +5°C° 0.8 mm 6 mps 757 mmHg 94%
    12:00 +5°C° 0.8 mm 6 mps 757 mmHg 93%
    13:00 +7°C° 0.8 mm 6 mps 757 mmHg 93%
    14:00 +6°C° 0.9 mm 7 mps 757 mmHg 93%
    15:00 +6°C° 0.9 mm 7 mps 756 mmHg 93%
    16:00 +6°C° 0.9 mm 8 mps 756 mmHg 93%
    17:00 +6°C° 1.1 mm 8 mps 755 mmHg 94%
    18:00 +6°C° 1.1 mm 8 mps 755 mmHg 94%
    19:00 +6°C° 1.1 mm 8 mps 754 mmHg 95%
    20:00 +6°C° 1.5 mm 8 mps 753 mmHg 95%
    21:00 +6°C° 1.5 mm 7 mps 752 mmHg 95%
    22:00 +8°C° 1.5 mm 7 mps 751 mmHg 95%
    23:00 +8°C° 0.7 mm 6 mps 751 mmHg 95%

    24 May, Friday

    Time Temperature Precipitation Wind Pressure Humidity
    00:00 +8°C° 0.7 mm 6 mps 750 mmHg 96%
    01:00 +8°C° 0.7 mm 5 mps 749 mmHg 96%
    02:00 +8°C° 0.3 mm 4 mps 748 mmHg 95%
    03:00 +9°C° 0.3 mm 3 mps 748 mmHg 94%
    04:00 +9°C° 0.3 mm 2 mps 747 mmHg 94%
    05:00 +9°C° 0.4 mm 2 mps 747 mmHg 93%
    06:00 +9°C° 0.4 mm 2 mps 746 mmHg 93%
    07:00 +10°C° 0.4 mm 1 mps 746 mmHg 93%
    08:00 +9°C° 0 mm 3 mps 746 mmHg 90%
    09:00 +10°C° 0 mm 4 mps 746 mmHg 87%
    10:00 +9°C° 0 mm 5 mps 746 mmHg 84%
    11:00 +9°C° 0 mm 6 mps 746 mmHg 77%
    12:00 +9°C° 0 mm 7 mps 746 mmHg 70%
    13:00 +8°C° 0 mm 9 mps 746 mmHg 62%
    14:00 +7°C° 0 mm 8 mps 746 mmHg 63%
    15:00 +6°C° 0 mm 7 mps 746 mmHg 64%
    16:00 +5°C° 0 mm 6 mps 746 mmHg 65%
    17:00 +5°C° 0 mm 5 mps 746 mmHg 68%
    18:00 +5°C° 0 mm 3 mps 746 mmHg 71%
    19:00 +5°C° 0 mm 2 mps 746 mmHg 73%
    20:00 +5°C° 0 mm 2 mps 746 mmHg 73%
    21:00 +5°C° 0 mm 2 mps 746 mmHg 72%
    22:00 +7°C° 0 mm 1 mps 745 mmHg 71%
    23:00 +6°C° 0.1 mm 2 mps 745 mmHg 73%

    25 May, Saturday

    Time Temperature Precipitation Wind Pressure Humidity
    00:00 +5°C° 0.1 mm 2 mps 744 mmHg 75%
    01:00 +4°C° 0.1 mm 3 mps 744 mmHg 77%
    02:00 +4°C° 0.2 mm 4 mps 744 mmHg 79%
    03:00 +4°C° 0.2 mm 4 mps 743 mmHg 81%
    04:00 +3°C° 0.2 mm 5 mps 742 mmHg 83%
    05:00 +3°C° 0 mm 5 mps 742 mmHg 83%
    06:00 +3°C° 0 mm 5 mps 742 mmHg 84%
    07:00 +3°C° 0 mm 6 mps 742 mmHg 85%
    08:00 +3°C° 0.1 mm 6 mps 741 mmHg 84%
    09:00 +3°C° 0.1 mm 7 mps 741 mmHg 83%
    10:00 +4°C° 0.1 mm 8 mps 740 mmHg 82%
    11:00 +4°C° 0.2 mm 8 mps 740 mmHg 74%
    12:00 +5°C° 0.2 mm 7 mps 739 mmHg 66%
    13:00 +7°C° 0.2 mm 6 mps 739 mmHg 57%
    14:00 +5°C° 0 mm 7 mps 739 mmHg 60%
    15:00 +4°C° 0 mm 7 mps 739 mmHg 63%
    16:00 +3°C° 0 mm 7 mps 739 mmHg 65%
    17:00 +2°C° 0 mm 8 mps 740 mmHg 69%
    18:00 +2°C° 0 mm 9 mps 741 mmHg 73%
    19:00 +1°C° 0 mm 9 mps 741 mmHg 76%
    20:00 +1°C° 0 mm 10 mps 742 mmHg 76%
    21:00 +1°C° 0 mm 10 mps 743 mmHg 76%
    22:00 +1°C° 0 mm 11 mps 744 mmHg 77%
    23:00 0°C° 0 mm 10 mps 745 mmHg 72%
    Show more